Location: Sternwarte ZA, Rosenfeld-Brittheim
(48.2889°N, 8.6789°E)
Time: 11:42:10
(UTC+02:00)

Tiangong 2 - Visible Passes

Search period start: 27 May 2018 00:00
Search period end: 06 June 2018 00:00
Orbit: 382 x 385 km, 42.8° (Epoch: 27 May)

Date Brightness Start Highest point End Pass type
(mag) Time Alt. Az. Time Alt. Az. Time Alt. Az.
27 May 2.1 21:48:07 10° WSW 21:50:56 29° S 21:53:44 10° ESE visible
27 May 2.8 23:24:42 10° WSW 23:26:31 20° SW 23:26:31 20° SW visible
28 May 2.3 22:24:50 10° WSW 22:27:32 26° S 22:29:17 16° SE visible
29 May 3.0 23:01:57 10° WSW 23:04:02 16° SSW 23:04:12 16° SSW visible
30 May 2.7 22:01:54 10° WSW 22:04:24 21° SSW 22:06:53 10° SE visible
31 May 3.4 22:39:37 10° SW 22:40:48 12° SSW 22:41:50 10° S visible
